Regional Weather Roundup
Issued by NWS

Home | Current Version | Previous Version | Graphics & Text | Print | Product List | Glossary On
Versions: 1 2 3 4 5 6 7 8 9 10 11 12 13 14 15 16 17 18 19 20 21 22 23 24 25 26 27 28 29 30 31 32 33 34 35 36 37 38 39 40 41 42 43 44 45 46 47 48 49 50
000
ASUS45 KSLC 180910
RWRUT

UTAH REGIONAL WEATHER ROUNDUP
NATIONAL WEATHER SERVICE SALT LAKE CITY UT
300 AM MDT THU SEP 18 2014

UTZ001>011-023>025-181000-

NORTHERN UTAH

CITY           SKY/WX    TMP DP  RH WIND       PRES   REMARKS
HILL AFB       CLEAR     72  42  33 SE12      29.93R
LOGAN          CLEAR     54  47  77 W6        29.90S
OGDEN          CLEAR     71  42  35 S13       29.89S
PROVO AIRPORT  CLEAR     63  43  48 CALM      29.97R
SALT LAKE CITY PTCLDY    71  45  39 SE12      29.89S
VERNAL         PTCLDY    56  39  53 W6        30.04F
WENDOVER       PTCLDY    72  43  35 NE8       29.86S
HEBER CITY     CLEAR     46  41  81 CALM      30.05S
WEST JORDAN    CLEAR     72  43  35 S13       29.94S

$$

UTZ012>022-026-027-181000-

SOUTHERN UTAH

CITY           SKY/WX    TMP DP  RH WIND       PRES   REMARKS
BRYCE CANYON   CLEAR     46  43  89 SW3       30.21S
CEDAR CITY     CLEAR     60  50  69 SE5       30.04F
MILFORD        CLEAR     62  49  62 S6        29.99S
MOAB/CYNLANDS  CLEAR     67  46  47 CALM      29.97S
PRICE          CLEAR     61  35  37 NE8       30.06F
ST GEORGE      SUNNY     73  55  53 SE5       29.89S
KANAB            N/A     57  46  67 N5        30.06S

$$

REGIONAL REPORTS     COLORADO/ARIZONA

CITY           SKY/WX    TMP DP  RH WIND       PRES   REMARKS
CRAIG, CO      CLEAR     43  38  82 CALM      30.12F
GRAND JUNCTION CLEAR     64  41  42 SE8       30.01F
RIFLE          CLEAR     54  40  59 CALM      30.08S
MONTROSE       CLEAR     58  43  57 SE7       30.11S
CORTEZ         CLEAR     47  46  97 CALM      30.13F
PAGE, AZ       CLEAR     71  52  50 SW3       29.97S
GRAND CANYON   CLEAR     48  45  89 CALM      30.14S
KINGMAN        CLEAR     68  61  78 SE9       29.92S
FLAGSTAFF      CLEAR     49  47  93 CALM      30.15F

$$

REGIONAL REPORTS    NEVADA/IDAHO/WYOMING

CITY           SKY/WX    TMP DP  RH WIND       PRES   REMARKS
LAS VEGAS, NV  CLEAR     84  59  42 S8        29.76S
ELY            CLEAR     62  44  51 S12       30.06S
ELKO           PTCLDY    69  47  45 W6        29.90R
POCATELLO, ID  PTCLDY    71  43  36 E8        29.86F
BURLEY         MOCLDY    66  54  65 SE6       29.79F
EVANSTON, WY   PTCLDY    60  37  42 S5        30.13F
ROCK SPRINGS   CLEAR     53  34  48 S6        30.12F

$$



USA.gov is the U.S. government's official web portal to all federal, state and local government web resources and services.